• In Spain
  • List of Countries
  • For 7 days
  • Water Temperature
  • Satellite Maps
  • Weather Map
  • Weather Widgets
  • user-avatar
    Login

    Hourly Weather Encamp

    Today, 22 February, Thursday

    Time Temperature Precipitation Wind Pressure Humidity
    00:00 -11°C° 0 mm 4 mps 614 mmHg 78%
    01:00 -10°C° 0 mm 3 mps 614 mmHg 78%
    02:00 -10°C° 0 mm 3 mps 613 mmHg 77%
    03:00 -12°C° 0 mm 3 mps 613 mmHg 77%
    04:00 -12°C° 0 mm 3 mps 613 mmHg 76%
    05:00 -12°C° 0 mm 3 mps 613 mmHg 76%
    06:00 -12°C° 0 mm 3 mps 613 mmHg 76%
    07:00 -10°C° 0 mm 3 mps 613 mmHg 72%
    08:00 -9°C° 0 mm 3 mps 613 mmHg 69%
    09:00 -9°C° 0 mm 4 mps 614 mmHg 65%
    10:00 -8°C° 0 mm 4 mps 614 mmHg 63%
    11:00 -7°C° 0 mm 4 mps 614 mmHg 60%
    12:00 -4°C° 0 mm 3 mps 615 mmHg 57%
    13:00 -5°C° 0 mm 3 mps 614 mmHg 59%
    14:00 -5°C° 0 mm 3 mps 614 mmHg 60%
    15:00 -5°C° 0 mm 3 mps 614 mmHg 62%
    16:00 -6°C° 0 mm 3 mps 614 mmHg 67%
    17:00 -8°C° 0 mm 3 mps 613 mmHg 72%
    18:00 -8°C° 0 mm 2 mps 613 mmHg 77%
    19:00 -8°C° 0 mm 2 mps 613 mmHg 78%
    20:00 -9°C° 0 mm 2 mps 613 mmHg 78%
    21:00 -10°C° 0 mm 2 mps 613 mmHg 78%
    22:00 -10°C° 0 mm 2 mps 613 mmHg 78%
    23:00 -10°C° 0 mm 2 mps 613 mmHg 77%

    Tomorrow, 23 February, Friday

    Time Temperature Precipitation Wind Pressure Humidity
    00:00 -10°C° 0 mm 2 mps 613 mmHg 77%
    01:00 -10°C° 0 mm 2 mps 613 mmHg 77%
    02:00 -10°C° 0 mm 2 mps 612 mmHg 76%
    03:00 -12°C° 0 mm 2 mps 612 mmHg 76%
    04:00 -12°C° 0 mm 2 mps 612 mmHg 75%
    05:00 -12°C° 0 mm 2 mps 612 mmHg 74%
    06:00 -12°C° 0 mm 2 mps 612 mmHg 74%
    07:00 -9°C° 0 mm 2 mps 613 mmHg 68%
    08:00 -7°C° 0 mm 2 mps 613 mmHg 63%
    09:00 -6°C° 0 mm 2 mps 614 mmHg 58%
    10:00 -4°C° 0 mm 2 mps 615 mmHg 55%
    11:00 -1°C° 0 mm 1 mps 615 mmHg 53%
    12:00 +1°C° 0 mm 1 mps 616 mmHg 51%
    13:00 0°C° 0 mm 1 mps 615 mmHg 52%
    14:00 0°C° 0 mm 1 mps 615 mmHg 54%
    15:00 0°C° 0 mm 1 mps 615 mmHg 56%
    16:00 -2°C° 0 mm 1 mps 614 mmHg 64%
    17:00 -3°C° 0 mm 1 mps 613 mmHg 73%
    18:00 -6°C° 0 mm 0 mps 613 mmHg 81%
    19:00 -7°C° 0 mm 0 mps 613 mmHg 81%
    20:00 -7°C° 0 mm 1 mps 613 mmHg 81%
    21:00 -8°C° 0 mm 1 mps 613 mmHg 81%
    22:00 -8°C° 0 mm 1 mps 613 mmHg 80%
    23:00 -8°C° 0 mm 1 mps 613 mmHg 79%

    Day after tomorrow, 24 February, Saturday

    Time Temperature Precipitation Wind Pressure Humidity
    00:00 -8°C° 0 mm 1 mps 613 mmHg 78%
    01:00 -8°C° 0 mm 1 mps 613 mmHg 76%
    02:00 -8°C° 0 mm 1 mps 613 mmHg 75%
    03:00 -9°C° 0 mm 1 mps 612 mmHg 73%
    04:00 -9°C° 0 mm 1 mps 612 mmHg 71%
    05:00 -9°C° 0 mm 1 mps 612 mmHg 68%
    06:00 -9°C° 0 mm 1 mps 612 mmHg 66%
    07:00 -6°C° 0 mm 1 mps 613 mmHg 60%
    08:00 -4°C° 0 mm 0 mps 614 mmHg 55%
    09:00 -2°C° 0 mm 0 mps 615 mmHg 49%
    10:00 -1°C° 0 mm 0 mps 616 mmHg 48%
    11:00 +1°C° 0 mm 1 mps 616 mmHg 47%
    12:00 +2°C° 0 mm 1 mps 616 mmHg 46%
    13:00 +2°C° 0 mm 1 mps 616 mmHg 48%
    14:00 +2°C° 0 mm 1 mps 616 mmHg 50%
    15:00 +2°C° 0 mm 1 mps 616 mmHg 52%
    16:00 0°C° 0 mm 1 mps 615 mmHg 61%
    17:00 -2°C° 0 mm 1 mps 615 mmHg 69%
    18:00 -4°C° 0 mm 0 mps 614 mmHg 77%
    19:00 -5°C° 0 mm 0 mps 615 mmHg 78%
    20:00 -4°C° 0 mm 1 mps 615 mmHg 79%
    21:00 -6°C° 0 mm 1 mps 615 mmHg 80%
    22:00 -6°C° 0 mm 1 mps 615 mmHg 80%
    23:00 -6°C° 0 mm 1 mps 615 mmHg 80%

    25 February, Sunday

    Time Temperature Precipitation Wind Pressure Humidity
    00:00 -6°C° 0 mm 1 mps 615 mmHg 80%
    01:00 -6°C° 0 mm 1 mps 615 mmHg 79%
    02:00 -6°C° 0 mm 1 mps 615 mmHg 78%
    03:00 -6°C° 0 mm 1 mps 615 mmHg 78%
    04:00 -6°C° 0 mm 1 mps 615 mmHg 76%
    05:00 -7°C° 0 mm 2 mps 615 mmHg 73%
    06:00 -7°C° 0 mm 2 mps 615 mmHg 71%
    07:00 -6°C° 0 mm 2 mps 616 mmHg 66%
    08:00 -2°C° 0 mm 1 mps 616 mmHg 61%
    09:00 0°C° 0 mm 1 mps 617 mmHg 56%
    10:00 -1°C° 0 mm 2 mps 617 mmHg 56%
    11:00 +1°C° 0 mm 2 mps 618 mmHg 56%
    12:00 +3°C° 0 mm 2 mps 618 mmHg 56%
    13:00 +3°C° 0 mm 2 mps 618 mmHg 58%
    14:00 +3°C° 0 mm 2 mps 617 mmHg 60%
    15:00 +2°C° 0 mm 3 mps 617 mmHg 61%
    16:00 +1°C° 0 mm 2 mps 617 mmHg 69%
    17:00 -2°C° 0 mm 2 mps 616 mmHg 76%
    18:00 -4°C° 0 mm 2 mps 615 mmHg 83%
    19:00 -5°C° 0 mm 2 mps 615 mmHg 82%
    20:00 -5°C° 0 mm 2 mps 615 mmHg 82%
    21:00 -7°C° 0 mm 3 mps 615 mmHg 81%
    22:00 -7°C° 0 mm 3 mps 615 mmHg 80%
    23:00 -7°C° 0 mm 3 mps 615 mmHg 78%

    26 February, Monday

    Time Temperature Precipitation Wind Pressure Humidity
    00:00 -8°C° 0 mm 3 mps 615 mmHg 77%
    01:00 -8°C° 0 mm 3 mps 615 mmHg 76%
    02:00 -8°C° 0 mm 3 mps 615 mmHg 74%
    03:00 -8°C° 0 mm 3 mps 615 mmHg 73%
    04:00 -9°C° 0 mm 3 mps 615 mmHg 71%
    05:00 -9°C° 0 mm 3 mps 615 mmHg 68%
    06:00 -8°C° 0 mm 2 mps 615 mmHg 65%
    07:00 -6°C° 0 mm 2 mps 616 mmHg 59%
    08:00 -4°C° 0 mm 2 mps 616 mmHg 52%
    09:00 -2°C° 0 mm 2 mps 617 mmHg 45%
    10:00 -1°C° 0 mm 2 mps 617 mmHg 43%
    11:00 +1°C° 0 mm 2 mps 618 mmHg 41%
    12:00 +2°C° 0 mm 2 mps 618 mmHg 39%
    13:00 +2°C° 0 mm 2 mps 617 mmHg 41%
    14:00 +2°C° 0 mm 2 mps 617 mmHg 43%
    15:00 +2°C° 0 mm 2 mps 616 mmHg 45%
    16:00 -2°C° 0 mm 2 mps 616 mmHg 55%
    17:00 -4°C° 0 mm 2 mps 615 mmHg 64%
    18:00 -4°C° 0 mm 1 mps 614 mmHg 73%
    19:00 -4°C° 0 mm 1 mps 614 mmHg 74%
    20:00 -6°C° 0 mm 1 mps 614 mmHg 75%
    21:00 -6°C° 0 mm 1 mps 614 mmHg 75%
    22:00 -6°C° 0 mm 1 mps 614 mmHg 75%
    23:00 -6°C° 0 mm 1 mps 614 mmHg 76%

    27 February, Tuesday

    Time Temperature Precipitation Wind Pressure Humidity
    00:00 -6°C° 0 mm 1 mps 614 mmHg 76%
    01:00 -6°C° 0 mm 1 mps 614 mmHg 76%
    02:00 -6°C° 0 mm 1 mps 614 mmHg 76%
    03:00 -7°C° 0 mm 1 mps 613 mmHg 76%
    04:00 -7°C° 0 mm 1 mps 613 mmHg 76%
    05:00 -7°C° 0 mm 1 mps 613 mmHg 76%
    06:00 -7°C° 0 mm 1 mps 613 mmHg 76%
    07:00 -6°C° 0 mm 1 mps 614 mmHg 72%
    08:00 -4°C° 0 mm 1 mps 614 mmHg 68%
    09:00 -3°C° 0 mm 1 mps 615 mmHg 63%
    10:00 -2°C° 0.1 mm 1 mps 615 mmHg 62%
    11:00 -3°C° 0.1 mm 2 mps 616 mmHg 60%
    12:00 -2°C° 0.1 mm 2 mps 616 mmHg 58%
    13:00 -2°C° 0.1 mm 2 mps 616 mmHg 59%
    14:00 -2°C° 0.1 mm 2 mps 616 mmHg 60%
    15:00 -2°C° 0.1 mm 2 mps 615 mmHg 60%
    16:00 -2°C° 0.1 mm 1 mps 615 mmHg 66%
    17:00 -3°C° 0.1 mm 1 mps 615 mmHg 72%
    18:00 -4°C° 0.1 mm 1 mps 615 mmHg 77%
    19:00 -4°C° 0 mm 1 mps 615 mmHg 79%
    20:00 -4°C° 0 mm 1 mps 615 mmHg 80%
    21:00 -4°C° 0 mm 1 mps 616 mmHg 82%
    22:00 -4°C° 0 mm 1 mps 616 mmHg 83%
    23:00 -4°C° 0 mm 1 mps 616 mmHg 84%
    Show more